Wind_Speed
60 59 58 58 60 62 55 49 46 47 43 41 31 39 45 43 40 34 37 34 34 34 30 32 36 31 37 34 42 39 35 37 33 32 32 37 39 45 42 44 53 51 48 50 53
63 61 60 60 58 59 59 53 53 50 48 44 38 43 42 43 39 32 38 35 37 39 31 38 36 36 37 31 40 41 37 39 36 35 35 40 43 45 48 48 53 59 61 58 53
65 61 62 64 63 61 59 59 54 53 50 45 44 43 44 42 40 34 36 41 41 38 36 40 36 38 36 32 35 43 40 40 39 37 37 42 46 51 52 51 59 66 70 55 55
66 63 64 65 67 62 62 62 58 56 56 53 48 45 44 44 44 36 39 44 41 40 34 36 42 32 39 39 35 44 44 40 41 37 36 43 48 53 57 59 65 72 72 61 49
70 68 66 68 64 64 63 62 62 62 59 57 53 47 43 43 43 38 40 43 36 35 39 38 42 34 40 39 38 44 44 43 42 38 37 44 48 53 58 62 66 72 70 60 51
77 73 71 70 64 67 68 65 63 61 57 56 53 48 44 44 39 41 40 42 34 33 41 40 43 37 40 40 41 43 45 43 43 41 36 46 48 53 59 66 72 73 74 63 52
80 76 71 70 65 69 63 67 58 59 55 56 54 50 44 44 40 38 35 40 36 34 34 39 41 40 39 43 40 44 44 45 44 43 38 44 49 54 59 68 71 77 77 69 56
77 76 72 70 62 65 63 66 56 56 56 60 49 43 42 40 39 38 36 35 36 35 39 45 36 40 38 42 42 44 44 45 43 44 42 44 48 53 61 67 71 78 77 72 64
71 68 71 71 61 64 59 62 58 54 58 57 51 38 33 33 32 36 36 33 35 31 40 41 33 38 41 42 46 43 43 42 43 44 42 44 48 52 60 69 74 77 78 79 72
67 67 65 66 64 62 59 56 55 53 54 56 51 39 37 34 39 35 35 32 38 30 39 32 31 38 41 41 45 44 42 39 43 44 42 43 47 53 60 67 73 78 79 81 80
67 66 63 59 63 68 59 57 52 47 49 52 46 42 44 45 42 38 38 35 34 31 37 33 32 35 42 43 44 42 40 40 41 42 44 43 47 52 58 65 73 75 79 82 75
64 62 55 52 46 43 45 46 44 46 46 43 43 50 47 48 40 38 37 34 29 29 34 31 31 34 39 40 40 41 42 42 41 41 44 44 47 51 57 63 70 75 76 81 76
63 59 58 57 55 54 54 53 49 51 56 49 47 48 46 39 37 33 30 26 29 32 35 33 32 32 36 40 38 39 42 42 42 42 43 43 45 49 53 61 67 72 74 78 74
67 69 63 62 58 54 52 53 52 52 52 52 56 55 45 42 38 34 38 32 32 35 34 33 33 35 38 36 37 38 39 42 40 41 41 41 42 47 50 58 64 68 69 73 70
77 70 68 66 65 61 57 59 58 58 53 55 54 50 51 47 43 42 40 40 40 36 37 34 36 37 37 38 37 35 37 41 39 39 39 38 41 45 49 55 59 65 65 68 67
79 77 76 74 74 73 71 67 65 62 62 61 56 55 53 52 51 48 44 43 42 39 39 41 38 37 38 37 36 35 35 39 38 38 36 37 39 42 47 53 55 59 61 64 66
86 82 80 79 77 74 72 69 67 63 65 64 61 59 59 55 54 53 52 49 48 45 43 40 41 40 39 35 34 34 33 36 36 36 36 35 37 39 43 50 51 55 57 60 63
93 90 87 85 83 80 78 75 69 65 64 64 65 67 67 65 59 54 54 55 52 49 43 40 42 41 39 33 34 34 32 35 35 35 36 34 35 37 41 46 49 51 54 57 61
98 96 93 91 88 86 84 79 70 70 65 70 68 65 64 68 64 57 53 53 51 48 39 38 42 42 40 35 33 33 32 33 33 32 34 33 32 35 39 42 46 48 51 53 57
103 102 98 94 91 91 87 81 74 73 72 74 76 73 74 72 69 58 52 49 48 44 40 38 43 42 41 35 31 32 31 30 30 31 33 34 31 32 37 37 44 44 47 49 54
98 96 95 94 92 91 85 80 79 79 76 78 73 66 63 54 58 54 50 48 45 41 37 38 43 43 40 35 32 32 31 29 29 30 31 33 30 31 35 34 41 40 43 44 48
95 91 92 95 93 88 81 81 80 78 76 73 66 61 64 58 59 56 55 51 46 40 40 41 43 41 37 35 33 33 32 27 28 29 30 30 29 30 32 33 37 37 41 40 44
99 93 94 90 87 81 78 77 78 76 75 71 66 62 63 63 64 62 62 54 50 46 42 42 43 41 38 35 35 35 33 29 26 28 29 28 27 28 29 32 35 35 38 39 41
97 98 93 90 82 83 80 80 78 76 76 72 66 66 65 62 64 65 65 58 55 50 40 44 44 42 33 32 35 34 33 27 24 26 28 30 27 26 27 29 32 33 34 37 39
105 103 95 87 82 86 88 84 82 79 78 72 67 64 65 64 65 68 67 64 57 53 46 44 45 46 40 35 37 36 33 27 27 26 28 28 28 25 26 29 29 31 32 34 35
104 101 104 95 92 89 87 82 82 81 75 74 69 69 69 66 65 68 68 67 63 57 52 45 47 45 40 36 36 33 36 31 28 27 27 23 27 25 26 28 29 29 30 31 32
107 110 108 106 103 96 85 82 81 80 77 75 75 72 70 68 66 66 66 65 64 58 56 47 47 46 43 41 37 37 38 31 30 30 26 26 23 26 27 27 28 28 28 30 30
Wind_Direction
288 291 295 293 293 293 296 299 301 302 301 300 303 291 298 310 317 323 313 319 318 320 329 337 344 341 345 345 341 336 335 336 335 326 331 326 330 326 327 328 337 339 307 283 277
287 287 287 291 291 291 295 297 299 301 303 301 294 297 295 305 314 320 315 314 316 311 328 334 333 339 333 338 341 333 333 336 332 328 330 332 328 327 328 331 338 347 341 322 296
282 286 288 287 289 289 291 294 293 297 296 300 299 296 299 302 306 312 308 308 315 306 314 329 326 334 330 321 331 332 331 333 333 330 332 329 329 329 330 333 342 349 342 326 306
280 283 283 286 286 288 288 291 292 293 295 295 299 292 292 293 295 301 303 303 309 305 312 329 330 329 334 317 317 329 327 330 334 331 332 326 329 330 332 332 342 349 344 332 320
274 276 279 282 280 281 284 286 289 292 290 293 293 294 291 288 293 295 296 300 302 306 300 327 326 319 331 316 314 323 322 325 333 331 328 328 329 332 331 333 346 346 344 336 329
274 275 275 278 275 275 280 286 286 287 287 291 294 291 290 289 288 290 289 291 306 308 297 313 318 308 325 319 315 320 320 322 330 332 332 328 331 333 336 335 347 348 347 339 328
273 272 276 274 275 273 278 282 281 286 288 292 290 293 286 288 284 287 292 295 299 304 295 305 314 308 315 315 312 318 319 320 327 331 331 330 333 334 337 339 349 351 349 345 337
270 271 274 275 271 271 275 277 281 281 289 290 295 288 289 283 280 281 287 288 293 301 292 299 311 306 311 309 306 314 318 317 322 330 329 329 332 335 338 343 350 352 352 357 350
267 269 271 276 277 273 274 275 275 282 285 288 294 289 289 286 287 290 280 284 289 290 285 301 305 298 306 304 305 309 319 314 321 328 327 330 336 340 341 342 348 352 353 358 355
270 271 270 270 276 277 277 270 270 281 281 284 291 291 290 290 296 296 277 279 283 282 290 297 300 296 302 301 306 307 316 311 320 327 327 332 338 340 340 344 347 352 354 356 357
264 265 270 267 269 271 271 270 273 271 275 281 284 296 299 300 294 295 279 269 276 281 283 295 293 289 299 298 306 310 317 308 318 327 329 335 340 340 342 344 347 352 353 355 358
254 254 254 259 259 263 263 264 268 280 271 280 278 294 292 296 294 292 275 269 278 291 293 293 294 290 298 300 305 308 311 310 317 326 331 338 342 341 342 344 346 352 354 356 0
255 253 258 263 267 270 273 278 283 283 286 287 288 293 295 295 290 285 277 280 291 300 294 286 291 293 292 298 303 307 311 306 315 325 330 337 339 340 341 344 347 351 356 358 358
256 258 261 265 269 271 275 278 281 283 286 286 282 291 291 290 291 288 290 290 297 298 295 289 292 286 284 291 295 305 307 307 312 324 330 334 337 337 341 343 347 351 357 1 3
261 262 265 267 269 270 272 275 276 280 278 284 282 282 286 288 288 288 290 286 296 293 295 289 296 283 282 288 291 302 306 306 310 322 328 331 335 336 338 342 346 352 358 2 10
257 261 262 262 263 266 267 270 273 274 280 282 285 281 280 282 285 285 288 282 293 292 296 295 290 282 278 288 289 295 306 302 309 320 327 329 330 333 338 342 347 353 358 3 10
256 258 260 261 261 263 265 266 271 274 275 279 279 279 280 278 279 282 285 285 291 293 295 291 289 279 277 286 285 290 303 302 307 315 321 327 327 335 338 343 346 353 358 2 5
255 256 257 259 261 262 264 266 269 270 272 276 275 277 279 279 277 277 280 282 286 290 293 287 284 276 275 286 285 290 297 299 304 312 317 325 329 332 336 341 346 353 359 1 4
254 254 256 256 259 261 263 265 267 265 266 272 273 274 275 278 279 282 277 277 280 285 283 288 282 277 273 283 285 286 291 295 300 308 315 321 329 328 336 339 345 354 359 2 2
252 252 254 255 256 259 262 263 263 266 267 270 271 276 280 272 275 277 275 273 277 278 280 282 278 275 272 282 281 283 286 291 296 302 309 315 326 327 334 338 345 350 359 3 0
249 250 252 253 255 258 260 261 262 265 268 271 273 272 265 262 268 271 269 270 272 269 268 278 272 272 272 282 278 279 282 285 291 295 303 308 319 325 331 338 343 348 354 1 1
246 247 248 252 254 256 256 259 260 264 266 267 265 261 256 258 260 262 261 262 268 261 262 267 267 270 275 275 275 278 277 284 289 292 297 302 311 323 327 333 338 349 355 360 1
247 245 248 249 251 252 252 256 258 260 261 262 258 251 253 253 257 258 259 259 263 262 258 264 265 269 272 272 273 278 275 279 286 290 293 293 303 316 321 328 334 349 352 358 359
247 245 247 251 250 248 250 253 255 256 260 258 251 251 248 250 253 256 260 259 259 262 256 260 264 263 268 272 275 278 273 272 280 286 292 288 296 310 312 322 329 342 350 352 357
252 253 252 251 249 248 248 248 251 255 256 252 249 253 249 249 249 253 258 259 258 259 256 258 261 260 263 269 276 278 272 264 275 277 283 291 287 302 306 315 321 335 346 348 357
244 249 255 256 254 252 250 250 252 252 254 251 249 252 250 251 250 251 256 258 255 256 258 256 257 261 264 261 266 272 265 264 274 276 278 280 280 297 302 308 315 327 336 342 351
245 248 252 254 255 256 252 250 250 251 250 247 248 249 249 249 250 250 254 257 257 253 254 255 255 257 261 261 262 270 258 259 268 271 270 271 280 289 294 299 306 315 326 334 342
Height
10835 10834 10833 10832 10832 10831 10831 10831 10829 10827 10825 10824 10823 10821 10816 10815 10813 10810 10806 10802 10796 10792 10787 10783 10780 10777 10771 10768 10767 10763 10758 10754 10749 10744 10738 10732 10726 10721 10714 10706 10695 10682 10669 10663 10659
10827 10827 10826 10825 10824 10822 10823 10823 10823 10822 10821 10820 10818 10815 10812 10810 10808 10805 10803 10798 10793 10788 10783 10779 10775 10770 10768 10763 10761 10757 10754 10749 10744 10738 10732 10725 10718 10713 10705 10697 10687 10671 10658 10643 10638
10819 10818 10819 10818 10815 10816 10816 10815 10814 10813 10813 10812 10811 10808 10806 10804 10803 10801 10798 10794 10791 10785 10780 10775 10771 10767 10763 10757 10754 10752 10749 10744 10738 10732 10726 10719 10712 10705 10696 10688 10676 10658 10645 10634 10624
10810 10811 10809 10810 10808 10808 10808 10809 10807 10806 10805 10804 10803 10802 10800 10798 10796 10795 10793 10789 10785 10781 10776 10771 10768 10762 10758 10754 10749 10747 10744 10739 10733 10727 10721 10713 10706 10697 10687 10678 10665 10650 10637 10621 10608
10800 10800 10800 10798 10800 10799 10799 10799 10799 10798 10797 10796 10794 10793 10792 10791 10789 10787 10786 10784 10779 10776 10771 10766 10763 10758 10754 10749 10744 10741 10739 10734 10729 10722 10715 10708 10700 10690 10682 10670 10655 10643 10628 10609 10593
10789 10790 10788 10789 10789 10789 10789 10791 10790 10789 10788 10787 10785 10784 10784 10783 10782 10781 10780 10777 10774 10770 10766 10761 10759 10753 10750 10744 10739 10736 10733 10729 10724 10716 10710 10702 10696 10686 10674 10664 10648 10634 10617 10596 10581
10777 10779 10779 10776 10779 10780 10778 10781 10781 10782 10781 10780 10778 10777 10775 10775 10773 10774 10772 10771 10768 10764 10761 10756 10752 10748 10745 10740 10734 10731 10728 10724 10719 10712 10706 10698 10689 10680 10669 10656 10642 10627 10608 10588 10571
10764 10766 10768 10769 10766 10766 10769 10770 10772 10772 10773 10770 10770 10768 10767 10766 10765 10765 10764 10764 10761 10757 10754 10750 10746 10743 10739 10735 10729 10726 10723 10719 10714 10707 10700 10694 10687 10676 10661 10649 10637 10621 10602 10581 10562
10750 10752 10756 10754 10757 10756 10756 10758 10761 10762 10764 10763 10762 10761 10760 10759 10757 10757 10756 10755 10753 10750 10747 10743 10740 10737 10732 10729 10723 10720 10718 10713 10709 10703 10695 10688 10680 10669 10656 10644 10630 10616 10595 10574 10555
10738 10740 10742 10744 10747 10746 10746 10748 10750 10753 10756 10755 10754 10753 10753 10751 10749 10748 10747 10747 10744 10743 10740 10736 10733 10731 10727 10723 10718 10715 10712 10708 10704 10698 10690 10684 10676 10664 10652 10638 10627 10611 10592 10572 10550
10728 10728 10732 10733 10736 10736 10737 10739 10741 10745 10746 10747 10746 10745 10743 10742 10741 10739 10739 10737 10736 10735 10733 10729 10726 10724 10721 10717 10712 10708 10706 10702 10699 10693 10686 10680 10671 10659 10647 10636 10623 10610 10593 10573 10552
10716 10718 10719 10724 10724 10725 10725 10729 10732 10735 10738 10737 10736 10736 10735 10735 10733 10732 10730 10730 10729 10727 10725 10722 10720 10717 10714 10710 10706 10703 10699 10696 10693 10688 10681 10674 10667 10656 10644 10634 10621 10607 10593 10574 10555
10703 10704 10708 10709 10711 10713 10714 10717 10721 10722 10726 10727 10728 10728 10728 10728 10727 10724 10724 10723 10722 10720 10718 10715 10713 10711 10708 10704 10701 10698 10693 10690 10686 10682 10675 10671 10663 10654 10644 10632 10619 10607 10592 10575 10555
10687 10692 10694 10698 10699 10703 10704 10708 10711 10711 10716 10718 10719 10720 10719 10720 10719 10719 10718 10716 10715 10713 10711 10709 10706 10703 10701 10698 10695 10692 10688 10685 10681 10677 10672 10667 10662 10653 10643 10633 10620 10609 10596 10580 10560
10674 10678 10682 10685 10688 10692 10694 10697 10701 10702 10707 10708 10708 10709 10710 10711 10711 10710 10710 10708 10708 10707 10704 10701 10698 10695 10694 10692 10689 10685 10683 10679 10676 10672 10668 10663 10658 10649 10640 10633 10623 10610 10597 10582 10564
10658 10662 10667 10672 10675 10678 10682 10687 10691 10695 10697 10697 10697 10697 10699 10701 10701 10701 10701 10701 10701 10699 10697 10693 10690 10688 10686 10685 10682 10681 10678 10675 10671 10668 10664 10659 10654 10647 10638 10630 10620 10610 10599 10585 10569
10641 10646 10651 10655 10658 10663 10667 10674 10679 10686 10682 10686 10685 10686 10688 10691 10691 10691 10692 10691 10691 10690 10689 10686 10683 10680 10679 10678 10676 10675 10673 10670 10667 10663 10660 10655 10650 10644 10637 10629 10621 10612 10600 10587 10574
10622 10628 10633 10637 10640 10646 10652 10659 10670 10674 10670 10670 10672 10673 10675 10677 10680 10681 10681 10681 10681 10681 10680 10678 10674 10673 10671 10671 10670 10668 10667 10665 10662 10660 10656 10651 10646 10641 10636 10628 10620 10611 10601 10590 10577
10603 10607 10613 10617 10621 10628 10636 10647 10655 10657 10656 10656 10657 10659 10662 10663 10666 10668 10670 10670 10671 10671 10672 10669 10666 10665 10664 10663 10662 10661 10660 10659 10658 10655 10651 10649 10644 10639 10634 10627 10620 10612 10602 10593 10581
10579 10586 10593 10597 10603 10609 10622 10632 10636 10636 10640 10642 10644 10645 10647 10648 10652 10655 10657 10659 10660 10660 10661 10660 10657 10656 10656 10655 10655 10654 10654 10653 10653 10650 10648 10645 10642 10637 10633 10627 10620 10612 10604 10595 10585
10554 10565 10571 10577 10582 10593 10609 10614 10616 10618 10622 10625 10630 10631 10633 10635 10638 10641 10645 10648 10648 10649 10651 10651 10649 10646 10648 10647 10647 10647 10647 10647 10646 10646 10644 10641 10639 10634 10629 10624 10618 10612 10605 10598 10588
10532 10544 10549 10556 10565 10580 10592 10595 10597 10601 10604 10610 10614 10617 10620 10622 10625 10628 10632 10635 10637 10639 10640 10640 10640 10638 10639 10640 10639 10639 10640 10641 10640 10639 10639 10637 10635 10631 10626 10622 10617 10611 10605 10598 10591
10512 10520 10525 10534 10549 10565 10570 10576 10578 10583 10588 10593 10598 10603 10606 10608 10611 10615 10616 10624 10626 10628 10630 10631 10632 10630 10631 10631 10631 10632 10633 10634 10633 10633 10633 10631 10630 10627 10623 10619 10615 10610 10605 10598 10591
10487 10497 10508 10517 10537 10545 10551 10556 10560 10564 10568 10575 10583 10587 10591 10596 10598 10600 10603 10609 10614 10617 10620 10621 10621 10623 10623 10623 10623 10624 10625 10625 10626 10626 10627 10625 10624 10623 10620 10616 10612 10608 10604 10597 10591
10460 10469 10488 10504 10516 10522 10526 10536 10540 10548 10550 10557 10567 10572 10574 10580 10584 10587 10588 10593 10601 10605 10609 10612 10611 10613 10615 10615 10616 10616 10617 10617 10617 10620 10619 10621 10617 10618 10616 10613 10610 10605 10601 10596 10590
10438 10446 10461 10479 10487 10494 10505 10523 10526 10528 10536 10542 10551 10551 10556 10564 10569 10571 10575 10578 10587 10592 10597 10602 10602 10604 10605 10607 10608 10609 10607 10609 10609 10610 10611 10614 10612 10613 10611 10608 10606 10602 10598 10594 10589
10420 10430 10441 10452 10461 10470 10493 10499 10504 10506 10514 10521 10529 10533 10540 10548 10552 10557 10561 10563 10570 10579 10584 10589 10592 10595 10597 10598 10601 10601 10595 10602 10601 10602 10604 10605 10607 10607 10606 10604 10601 10598 10595 10591 10588